Location: Albany
(35.0000°S, 118.0000°E)
Time: 23:57:55
(UTC-04:00)

Vanguard 3 - Visible Passes

Search period start: 24 April 2014 00:00
Search period end: 04 May 2014 00:00
Orbit: 507 x 3281 km, 33.4° (Epoch: 24 April)

Date Brightness Start Highest point End Pass type
(mag) Time Alt. Az. Time Alt. Az. Time Alt. Az.
24 Apr 7.1 06:50:49 10° NW 06:54:19 35° NNE 06:55:15 30° NE visible
25 Apr 8.2 07:50:44 10° WNW 07:52:25 25° WNW 07:52:25 25° WNW visible
26 Apr 6.8 06:39:28 10° WNW 06:43:15 44° NNE 06:44:48 28° ENE visible
27 Apr 7.7 07:39:39 10° W 07:41:56 35° WNW 07:41:56 35° WNW visible
28 Apr 6.6 06:28:05 10° WNW 06:32:12 54° N 06:34:18 23° E visible
29 Apr 7.1 07:28:31 10° W 07:31:25 47° WNW 07:31:25 47° WNW visible
30 Apr 6.5 06:16:41 10° WNW 06:21:08 63° N 06:23:46 18° E visible
01 May 6.5 07:17:18 10° W 07:20:53 63° NW 07:20:53 63° NW visible
02 May 6.6 06:05:12 10° W 06:10:03 70° N 06:13:15 14° E visible
02 May 9.5 08:17:47 10° W 08:18:01 11° W 08:18:01 11° W visible
03 May 6.3 07:06:01 10° W 07:10:13 65° N 07:10:23 64° N visible
